www.pogodaiklimat.ru

Погода и климат >> Архив погоды >> Австралия >> Западная Австралия >> Уиндем


ПОГОДА в Уиндеме

  • Прогноз погоды в Уиндеме
  • Монитор погоды в Уиндеме

АРХИВ ПОГОДЫ в Уиндеме

Время (UTC), дата Ветер
(напр.,м/с)
 
Видим.   Явления Облачность Т
(С)
Тd
(С)
f
(%)
Тe
(С)
Тes
(С)
Комфортность P
(гПа)
Po
(гПа)
Тmin
(С)
Tmax
(С)
R
(мм)
R24
(мм)
S
(см)
07 17.02 С 3 н/о н/о +36.8 +22.2 43 +45 +45 опасность
перегрева
1005.9 1005.4
08 17.02 С 3 н/о н/о +36.1 +22.6 46 +45 +45 опасность
перегрева
1005.2 1004.7
09 17.02 С 6 н/о н/о +34.2 +25.0 59 +48 +48 опасность
перегрева
1005.6 1005.1
10 17.02 С 6 н/о н/о +31.7 +25.3 69 +46 +46 опасность
перегрева
1006.4 1005.9
11 17.02 С 7 н/о н/о +31.2 +26.0 74 +47 +47 опасность
перегрева
1007.6 1007.1
12 17.02 С 3 н/о н/о +30.8 +25.6 74 +45 +45 опасность
перегрева
1008.7 1008.2
13 17.02 СВ 5 н/о н/о +30.2 +25.3 75 +44 +44 опасность
перегрева
1010.1 1009.6 +37.3
14 17.02 С 3 н/о н/о +29.8 +25.3 77 +44 +44 опасность
перегрева
1010.0 1009.5
15 17.02 СЗ 4 н/о н/о +29.4 +22.6 67 +39 +39 очень
душно
1009.7 1009.2
16 17.02 СЗ 6 н/о н/о +30.3 +21.4 59 +38 +38 очень
душно
1009.2 1008.7
17 17.02 З 5 н/о н/о +28.7 +22.2 68 +37 +37 очень
душно
1009.3 1008.8
18 17.02 З 6 н/о н/о +28.8 +21.6 65 +37 +37 очень
душно
1008.7 1008.2
19 17.02 З 4 н/о н/о +28.2 +21.7 68 +36 +36 очень
душно
1007.9 1007.4
20 17.02 З 4 н/о н/о +27.8 +21.6 69 +36 +36 очень
душно
1007.8 1007.3
21 17.02 З 2 н/о н/о +27.2 +21.7 72 +35 +35 очень
душно
1008.1 1007.6
22 17.02 С 2 н/о н/о +26.7 +22.3 77 +35 +35 очень
душно
1008.6 1008.1
23 17.02 штиль 0 н/о н/о +28.9 +21.9 66 +37 +37 очень
душно
1009.3 1008.8
00 18.02 Ю 2 н/о н/о +30.5 +21.0 57 +38 +38 очень
душно
1009.8 1009.3
01 18.02 Ю 1 н/о н/о +31.8 +21.6 55 +40 +40 очень
душно
1009.9 1009.4 +26.6
02 18.02 З 2 н/о н/о +34.1 +20.1 44 +40 +40 очень
душно
1009.5 1009.0
03 18.02 Ю 1 н/о н/о +35.2 +21.8 46 +43 +43 опасность
перегрева
1009.0 1008.5
04 18.02 С 3 н/о н/о +34.6 +22.6 50 +44 +44 опасность
перегрева
1008.4 1007.9
05 18.02 С 2 н/о н/о +37.1 +20.0 37 +43 +43 опасность
перегрева
1007.5 1007.0
06 18.02 С 4 н/о н/о +37.4 +18.9 34 +42 +42 опасность
перегрева
1006.8 1006.3
07 18.02 З 4 н/о н/о +38.8 +18.6 31 +43 +43 опасность
перегрева
1006.1 1005.6
08 18.02 С 3 н/о н/о +37.7 +22.6 42 +47 +47 опасность
перегрева
1006.0 1005.5
09 18.02 С 6 н/о н/о +34.5 +23.8 54 +46 +46 опасность
перегрева
1006.0 1005.5
10 18.02 С 7 н/о н/о +32.4 +25.0 65 +46 +46 опасность
перегрева
1006.4 1005.9
11 18.02 С 6 н/о н/о +31.5 +24.9 68 +45 +45 опасность
перегрева
1007.1 1006.6
12 18.02 В 3 н/о н/о +31.0 +25.4 72 +45 +45 опасность
перегрева
1008.6 1008.1
13 18.02 В 3 н/о н/о +30.7 +25.3 73 +45 +45 опасность
перегрева
1009.5 1009.0 +39.1
14 18.02 В 4 н/о н/о +30.0 +25.7 78 +45 +45 опасность
перегрева
1010.1 1009.6
15 18.02 ЮВ 2 н/о н/о +29.2 +26.0 83 +44 +44 опасность
перегрева
1009.5 1009.0
16 18.02 ЮВ 3 н/о н/о +28.9 +26.1 85 +44 +44 опасность
перегрева
1009.2 1008.7
17 18.02 СЗ 3 н/о н/о +29.9 +23.1 67 +40 +40 очень
душно
1008.5 1008.0
18 18.02 З 4 н/о н/о +30.1 +22.0 62 +39 +39 очень
душно
1008.4 1007.9
19 18.02 З 4 н/о н/о +29.9 +21.6 61 +38 +38 очень
душно
1008.7 1008.2
20 18.02 З 4 н/о н/о +29.0 +22.0 66 +37 +37 очень
душно
1009.1 1008.6
21 18.02 З 2 н/о н/о +27.7 +22.0 71 +36 +36 очень
душно
1009.0 1008.5
22 18.02 СЗ 3 н/о н/о +27.8 +22.5 73 +37 +37 очень
душно
1009.2 1008.7
23 18.02 СЗ 3 н/о н/о +30.1 +21.7 61 +38 +38 очень
душно
1010.1 1009.6
00 19.02 З 5 н/о н/о +31.8 +21.9 56 +40 +40 очень
душно
1010.5 1010.0
01 19.02 З 6 н/о н/о +32.5 +21.7 53 +41 +41 опасность
перегрева
1010.7 1010.2 +27.2
02 19.02 З 4 н/о н/о +34.0 +22.4 51 +43 +43 опасность
перегрева
1010.3 1009.8
03 19.02 З 4 н/о н/о +35.9 +21.0 42 +43 +43 опасность
перегрева
1009.9 1009.4
04 19.02 З 4 н/о н/о +36.8 +21.8 42 +45 +45 опасность
перегрева
1009.0 1008.5
05 19.02 З 5 н/о н/о +37.5 +20.8 38 +44 +44 опасность
перегрева
1008.1 1007.6
06 19.02 З 4 н/о н/о +38.6 +20.8 36 +45 +45 опасность
перегрева
1007.5 1007.0
07 19.02 З 3 н/о н/о +39.5 +19.7 32 +45 +45 опасность
перегрева
1007.0 1006.5
08 19.02 З 3 н/о н/о +39.0 +18.8 31 +43 +43 опасность
перегрева
1006.3 1005.8
09 19.02 С 6 н/о н/о +36.0 +23.9 50 +47 +47 опасность
перегрева
1006.2 1005.7
10 19.02 С 7 н/о н/о +32.8 +24.8 63 +46 +46 опасность
перегрева
1007.1 1006.6
11 19.02 С 7 н/о н/о +31.9 +24.2 64 +44 +44 опасность
перегрева
1008.1 1007.6
12 19.02 СВ 3 н/о н/о +31.7 +25.1 68 +45 +45 опасность
перегрева
1009.6 1009.1
13 19.02 СВ 3 н/о н/о +31.4 +25.3 70 +45 +45 опасность
перегрева
1010.2 1009.7 +39.7
14 19.02 В 2 н/о н/о +30.7 +25.8 75 +46 +46 опасность
перегрева
1010.2 1009.7
15 19.02 ЮВ 3 н/о н/о +30.2 +26.1 79 +46 +46 опасность
перегрева
1010.7 1010.2
16 19.02 СЗ 4 н/о н/о +30.8 +21.9 59 +39 +39 очень
душно
1010.5 1010.0
17 19.02 З 5 н/о н/о +30.7 +22.0 60 +39 +39 очень
душно
1009.9 1009.4
18 19.02 З 3 н/о н/о +29.9 +22.3 64 +39 +39 очень
душно
1009.5 1009.0
19 19.02 З 2 н/о н/о +28.6 +22.8 71 +38 +38 очень
душно
1009.7 1009.2
20 19.02 В 5 н/о н/о +29.1 +22.1 66 +38 +38 очень
душно
1012.1 1011.6
21 19.02 СВ 6 н/о н/о +27.7 +19.8 62 +34 +34 очень
душно
1012.6 1012.1
22 19.02 СВ 5 н/о н/о +27.2 +20.0 65 +33 +33 очень
душно
1012.7 1012.2
23 19.02 З 4 н/о н/о +27.9 +20.7 65 +35 +35 очень
душно
1012.5 1012.0
00 20.02 ЮЗ 5 н/о н/о +30.0 +21.1 59 +38 +38 очень
душно
1012.4 1011.9
01 20.02 ЮЗ 7 н/о н/о +31.9 +23.2 60 +42 +42 опасность
перегрева
1011.9 1011.4 +27.0
02 20.02 ЮЗ 5 н/о н/о +33.2 +22.6 54 +43 +43 опасность
перегрева
1011.0 1010.5
03 20.02 З 3 н/о н/о +33.8 +20.6 46 +41 +41 опасность
перегрева
1010.9 1010.4
04 20.02 СЗ 1 н/о н/о +34.9 +21.6 46 +43 +43 опасность
перегрева
1010.5 1010.0
05 20.02 СВ 3 н/о н/о +35.3 +21.2 44 +43 +43 опасность
перегрева
1009.8 1009.3
06 20.02 В 5 н/о н/о +36.4 +18.5 35 +41 +41 опасность
перегрева
1009.1 1008.6
07 20.02 В 3 н/о н/о +36.3 +17.9 34 +40 +40 очень
душно
1008.5 1008.0
08 20.02 СВ 4 н/о н/о +34.3 +19.9 43 +40 +40 очень
душно
1007.6 1007.1
09 20.02 СВ 4 н/о н/о +32.7 +21.2 51 +40 +40 очень
душно
1008.8 1008.3
10 20.02 С 2 н/о н/о +31.4 +20.7 53 +38 +38 очень
душно
1009.7 1009.2
11 20.02 СЗ 3 н/о н/о +30.7 +21.8 59 +39 +39 очень
душно
1009.9 1009.4
12 20.02 СЗ 4 н/о н/о +30.8 +23.5 65 +42 +42 опасность
перегрева
1009.9 1009.4
13 20.02 ЮЗ 4 н/о н/о +30.2 +23.9 69 +42 +42 опасность
перегрева
1009.8 1009.3 +37.3
14 20.02 З 4 н/о н/о +30.4 +22.0 61 +39 +39 очень
душно
1010.7 1010.2
15 20.02 З 4 н/о н/о +29.8 +22.3 64 +39 +39 очень
душно
1010.5 1010.0
16 20.02 СЗ 3 н/о н/о +28.1 +21.9 69 +36 +36 очень
душно
1010.2 1009.7
17 20.02 СЗ 4 н/о н/о +28.2 +22.0 69 +36 +36 очень
душно
1009.9 1009.4
18 20.02 СЗ 4 н/о н/о +28.1 +22.3 71 +37 +37 очень
душно
1009.7 1009.2
19 20.02 З 3 н/о н/о +27.5 +23.1 77 +37 +37 очень
душно
1009.7 1009.2
20 20.02 СЗ 3 н/о н/о +26.9 +21.9 74 +35 +35 очень
душно
1009.6 1009.1
21 20.02 СЗ 3 н/о н/о +26.6 +21.4 73 +34 +34 очень
душно
1010.0 1009.5
22 20.02 штиль 0 н/о н/о +27.3 +22.7 76 +36 +36 очень
душно
1010.7 1010.2
23 20.02 З 2 н/о н/о +29.5 +21.4 62 +37 +37 очень
душно
1011.1 1010.6
00 21.02 ЮЗ 2 н/о н/о +31.0 +21.8 58 +39 +39 очень
душно
1011.5 1011.0
01 21.02 ЮЗ 3 н/о н/о +32.7 +21.2 51 +40 +40 очень
душно
1011.9 1011.4 +26.3
02 21.02 З 3 н/о н/о +34.1 +20.5 45 +41 +41 опасность
перегрева
1011.3 1010.8
03 21.02 З 3 н/о н/о +35.5 +20.6 42 +42 +42 опасность
перегрева
1010.5 1010.0
04 21.02 З 3 н/о н/о +36.6 +20.0 38 +42 +42 опасность
перегрева
1009.4 1008.9
05 21.02 СЗ 4 н/о н/о +38.0 +21.2 38 +45 +45 опасность
перегрева
1008.2 1007.7
06 21.02 СЗ 2 н/о н/о +38.6 +19.9 34 +44 +44 опасность
перегрева
1007.4 1006.9
07 21.02 З 3 н/о н/о +39.0 +19.3 32 +44 +44 опасность
перегрева
1006.6 1006.1
08 21.02 З 3 н/о н/о +39.1 +19.9 33 +44 +44 опасность
перегрева
1005.7 1005.2
09 21.02 С 4 н/о н/о +37.2 +19.2 35 +42 +42 опасность
перегрева
1005.8 1005.3
10 21.02 С 3 н/о н/о +34.6 +22.3 49 +44 +44 опасность
перегрева
1006.9 1006.4
11 21.02 С 4 н/о н/о +33.1 +23.4 57 +44 +44 опасность
перегрева
1007.8 1007.3
12 21.02 В 6 н/о н/о +32.4 +23.1 58 +43 +43 опасность
перегрева
1008.8 1008.3
13 21.02 ЮВ 6 н/о н/о +31.6 +20.8 53 +39 +39 очень
душно
1009.9 1009.4 +39.8
14 21.02 В 1 н/о н/о +30.4 +20.9 57 +38 +38 очень
душно
1010.3 1009.8
15 21.02 В 2 н/о н/о +29.7 +22.2 64 +39 +39 очень
душно
1009.7 1009.2
16 21.02 В 1 н/о н/о +29.2 +23.2 70 +39 +39 очень
душно
1009.5 1009.0
17 21.02 СЗ 3 н/о н/о +28.3 +22.5 71 +37 +37 очень
душно
1009.1 1008.6
18 21.02 СЗ 4 н/о н/о +28.4 +22.6 71 +38 +38 очень
душно
1008.0 1007.5
19 21.02 СЗ 2 н/о н/о +28.1 +21.1 66 +35 +35 очень
душно
1007.6 1007.1
20 21.02 штиль 0 н/о н/о +28.4 +21.2 65 +36 +36 очень
душно
1007.8 1007.3
21 21.02 СЗ 1 н/о н/о +27.7 +22.2 72 +36 +36 очень
душно
1008.0 1007.5
22 21.02 В 3 н/о н/о +28.2 +22.7 72 +37 +37 очень
душно
1008.9 1008.4
23 21.02 В 6 н/о н/о +28.7 +23.6 74 +39 +39 очень
душно
1010.6 1010.1
00 22.02 В 4 н/о н/о +29.4 +23.4 70 +40 +40 очень
душно
1011.1 1010.6
01 22.02 ЮВ 2 н/о н/о +31.4 +22.1 58 +40 +40 очень
душно
1011.4 1010.9 +27.7
02 22.02 З 2 н/о н/о +33.2 +20.7 48 +40 +40 очень
душно
1011.4 1010.9
03 22.02 З 4 н/о н/о +35.0 +20.5 43 +42 +42 опасность
перегрева
1009.9 1009.4
04 22.02 ЮЗ 3 н/о н/о +35.9 +20.6 41 +42 +42 опасность
перегрева
1008.6 1008.1
05 22.02 ЮЗ 2 н/о н/о +38.0 +19.4 34 +43 +43 опасность
перегрева
1007.5 1007.0
06 22.02 ЮЗ 3 н/о н/о +38.8 +19.6 33 +44 +44 опасность
перегрева
1006.6 1006.1
07 22.02 Ю 2 н/о н/о +39.5 +18.1 29 +43 +43 опасность
перегрева
1005.8 1005.3
08 22.02 В 3 н/о н/о +39.5 +17.6 28 +42 +42 опасность
перегрева
1005.3 1004.8
09 22.02 СЗ 4 н/о н/о +37.2 +21.3 40 +44 +44 опасность
перегрева
1005.4 1004.9
10 22.02 С 3 н/о н/о +34.5 +21.5 47 +42 +42 опасность
перегрева
1005.7 1005.2
11 22.02 С 3 н/о н/о +33.0 +22.4 54 +42 +42 опасность
перегрева
1006.7 1006.2
12 22.02 штиль 0 н/о н/о +32.6 +23.5 59 +44 +44 опасность
перегрева
1007.4 1006.9
13 22.02 С 1 н/о н/о +31.8 +23.1 60 +42 +42 опасность
перегрева
1007.4 1006.9 +40.1
14 22.02 штиль 0 н/о н/о +30.7 +24.4 69 +43 +43 опасность
перегрева
1007.7 1007.2
15 22.02 С 2 н/о н/о +29.5 +24.4 74 +41 +41 опасность
перегрева
1007.4 1006.9
16 22.02 В 3 н/о н/о +29.5 +24.8 76 +42 +42 опасность
перегрева
1007.0 1006.5
17 22.02 В 4 н/о н/о +29.4 +26.2 83 +45 +45 опасность
перегрева
1006.8 1006.3
18 22.02 В 3 н/о н/о +28.3 +25.9 87 +42 +42 опасность
перегрева
1006.7 1006.2
19 22.02 В 3 н/о н/о +28.0 +25.8 88 +42 +42 опасность
перегрева
1006.7 1006.2
20 22.02 В 3 н/о н/о +28.5 +26.3 88 +43 +43 опасность
перегрева
1007.2 1006.7
21 22.02 В 1 н/о н/о +27.4 +25.2 88 +40 +40 очень
душно
1007.6 1007.1
22 22.02 В 1 н/о н/о +28.7 +25.7 84 +43 +43 опасность
перегрева
1008.2 1007.7
23 22.02 З 2 н/о н/о +30.6 +25.9 76 +46 +46 опасность
перегрева
1008.3 1007.8
00 23.02 З 3 н/о н/о +32.9 +22.0 53 +42 +42 опасность
перегрева
1008.5 1008.0
01 23.02 ЮЗ 4 н/о н/о +34.6 +21.6 47 +43 +43 опасность
перегрева
1008.5 1008.0 +27.4
02 23.02 ЮЗ 3 н/о н/о +35.5 +20.6 42 +42 +42 опасность
перегрева
1008.3 1007.8
03 23.02 З 3 н/о н/о +37.2 +20.5 38 +43 +43 опасность
перегрева
1007.4 1006.9
04 23.02 ЮЗ 3 н/о н/о +38.5 +19.4 33 +43 +43 опасность
перегрева
1006.3 1005.8
05 23.02 З 3 н/о н/о +39.7 +18.3 29 +43 +43 опасность
перегрева
1005.5 1005.0
06 23.02 З 4 н/о н/о +40.2 +17.6 27 +43 +43 опасность
перегрева
1004.8 1004.3
07 23.02 ЮЗ 3 н/о н/о +40.4 +17.8 27 +43 +43 опасность
перегрева
1004.4 1003.9
08 23.02 З 3 н/о н/о +40.5 +16.6 25 +43 +43 опасность
перегрева
1003.8 1003.3
09 23.02 З 3 н/о н/о +39.3 +18.5 30 +43 +43 опасность
перегрева
1003.8 1003.3
10 23.02 С 6 н/о н/о +35.5 +23.5 50 +46 +46 опасность
перегрева
1004.5 1004.0
11 23.02 С 6 н/о н/о +33.9 +25.9 63 +49 +49 опасность
перегрева
1005.8 1005.3
12 23.02 С 6 н/о н/о +32.4 +25.7 68 +48 +48 опасность
перегрева
1006.5 1006.0
13 23.02 СЗ 3 н/о н/о +32.0 +26.1 71 +48 +48 опасность
перегрева
1006.8 1006.3 +41.1
14 23.02 СВ 2 н/о н/о +31.1 +24.5 68 +44 +44 опасность
перегрева
1007.2 1006.7
15 23.02 В 2 н/о н/о +29.9 +24.5 73 +42 +42 опасность
перегрева
1007.0 1006.5
16 23.02 ЮВ 5 н/о н/о +30.0 +26.4 81 +46 +46 опасность
перегрева
1006.7 1006.2
17 23.02 В 4 н/о н/о +29.2 +26.6 86 +45 +45 опасность
перегрева
1006.2 1005.7
18 23.02 В 3 н/о н/о +28.8 +26.4 87 +44 +44 опасность
перегрева
1006.2 1005.7
19 23.02 В 3 н/о н/о +28.1 +25.7 87 +42 +42 опасность
перегрева
1006.3 1005.8
20 23.02 В 3 н/о н/о +28.0 +25.8 88 +42 +42 опасность
перегрева
1006.6 1006.1
21 23.02 СВ 2 н/о н/о +27.6 +25.6 89 +41 +41 опасность
перегрева
1006.9 1006.4
22 23.02 В 2 н/о н/о +28.2 +26.0 88 +42 +42 опасность
перегрева
1007.2 1006.7
23 23.02 В 2 н/о н/о +30.6 +25.7 75 +45 +45 опасность
перегрева
1007.6 1007.1
00 24.02 З 2 н/о н/о +31.9 +23.4 61 +43 +43 опасность
перегрева
1007.8 1007.3
01 24.02 Ю 3 н/о н/о +33.5 +22.6 53 +43 +43 опасность
перегрева
1007.8 1007.3 +27.2
02 24.02 ЮЗ 3 н/о н/о +35.1 +21.7 46 +43 +43 опасность
перегрева
1007.3 1006.8
03 24.02 Ю 3 н/о н/о +37.3 +21.8 41 +45 +45 опасность
перегрева
1006.3 1005.8
04 24.02 З 3 н/о н/о +39.0 +22.1 38 +47 +47 опасность
перегрева
1005.6 1005.1
05 24.02 В 3 н/о н/о +40.1 +19.7 31 +45 +45 опасность
перегрева
1004.8 1004.3

 

Местоположение метеостанции Уиндем (Западная Австралия, Австралия): широта -15.50 долгота 128.15 высота над уровнем моря 4 м.

В архиве по умолчанию представлена погода в Уиндеме за последнюю неделю. Архивные данные за месяц целиком и за предыдущие месяцы, начиная с января 2011 года, Вы можете получить, выбрав интересующий диапазон дат из раскрывающегося списка и нажав кнопку "Ввод!".


*Определитесь, кто Вы:
робот инопланетянин человек

Внимание! Время в таблицах - всемирное. Для получения местного времени необходимо прибавить поправку, которая равна 8 ч.

Смотрите также архив погоды в соседних городах и на ближайших метеорологических станциях:

Погода в Кунунарре (Западная Австралия, Австралия) (68 км)
Погода в Аэропорту Аргайл (Западная Австралия, Австралия) (130 км)
Погода в Порт Китс (Северная территория, Австралия) (203 км)
Погода в Калумбуру (Западная Австралия, Австралия) (209 км)
Погода в Трускотте (Западная Австралия, Австралия) (247 км)
Погода на Острове Троутон (Западная Австралия, Австралия) (290 км)
Погода в Манбуллу Ксиро (Северная территория, Австралия) (291 км)
Погода в Холс Крик (Западная Австралия, Австралия) (308 км)
Погода в Виктория-Ривер (Северная территория, Австралия) (323 км)
Погода на Маяке Кейп-Дон (Северная территория, Австралия) (375 км)

Пояснения к столбцам:

Ветер - указаны скорость ветра в м/с - средняя за 10 мин, порывы в срок и между сроками (в фигурных скобках) и направление, откуда дует ветер: С - северный, СВ - северо-восточный, В - восточный, ЮВ - юго-восточный, Ю - южный, ЮЗ - юго-западный, З - западный, СЗ - северо-западный.
Видимость - горизонтальная дальность видимости в метрах или километрах. При видимости от 1 до 10 км при отсутствии осадков обычно наблюдается дымка, при ухудшении видимости до 1 км и менее - туман. В сухую погоду видимость может ухудшаться дымом, пылью или мглою.
Явления - указаны атмосферные явления, наблюдавшиеся в срок или в последний час перед сроком; фигурными скобками обозначены явления, наблюдавшиеся между сроками (за 1-3 часа до срока); квадратными скобками обозначены град или гололедные отложения с указанием их диаметра в мм.
Облачность - указаны через наклонную черту общая и нижняя облачность в баллах и высота нижней границы облаков в метрах; квадратными скобками обозначены формы облаков: Ci - перистые, Cs - перисто-слоистые, Cc - перисто-кучевые, Ac - высококучевые, As - высокослоистые, Sc - слоисто-кучевые, Ns - слоисто-дождевые, Cu - кучевые, Cb - кучево-дождевые. Подробнее классификацию облаков см. в Атласе облаков (PDF).
T - Температура воздуха - температура, измеренная на высоте 2 м над землей.
Td - Температура точки росы - температура, при понижении до которой содержащийся в воздухе водяной пар достигнет насыщения.
f - Относительная влажность воздуха - влажноcть воздуха, измеренная на высоте 2 м над землей.
Te - Эффективная температура - температура, которую ощущает одетый по сезону человек в тени. Характеристика душности погоды. При расчете учитывается влияние влажности воздуха и скорости ветра на теплоощущения человека.
Tes - Эффективная температура на солнце - температура, которую ощущает человек, с поправкой на солнечный нагрев. Характеристика знойности погоды. Зависит от высоты солнца над горизонтом, облачности и скорости ветра. Ночью, в пасмурную погоду, а также при ветре 12 м/с и более поправка равна нулю.
P - Атмосферное давление - приведенное к уровню моря атмосферное давление.
Po - Атмосферное давление - измеренное на уровне метеостанции атмосферное давление.
Tmin - Минимальная температура - минимум температуры воздуха на высоте 2 м над землей.
Tmax - Максимальная температура - максимум температуры воздуха на высоте 2 м над землей.
R - Количество осадков - Количество выпавших осадков за период времени, мм. При наведении курсора мыши на число - период времени, за который выпало указанное количество осадков.
R24 - Количество осадков - Количество выпавших осадков за 24 часа, мм.
S - Снежный покров - Высота снежного покрова, см. При наведении курсора мыши на число - состояние снежного покрова и степень покрытия местности в баллах.